Stations météo

Publicité
Lorient Lan Bihoue, France (7205): Température de l'air & dewpoint: 15.10.2017 19:00:00 - 21.10.2017 19:00:00 (CEST)Lorient Lan Bihoue, France (7205): Température de l'air 5cm: 15.10.2017 19:00:00 - 21.10.2017 19:00:00 (CEST)Lorient Lan Bihoue, France (7205): Température de l'air -20cm: 15.10.2017 19:00:00 - 21.10.2017 19:00:00 (CEST)Lorient Lan Bihoue, France (7205): Vitesse du vent & gusts: 15.10.2017 19:00:00 - 21.10.2017 19:00:00 (CEST)Lorient Lan Bihoue, France (7205): Direction du vent: 15.10.2017 19:00:00 - 21.10.2017 19:00:00 (CEST)Lorient Lan Bihoue, France (7205): reduced air pressure: 15.10.2017 19:00:00 - 21.10.2017 19:00:00 (CEST)Lorient Lan Bihoue, France (7205): visibility: 15.10.2017 19:00:00 - 21.10.2017 19:00:00 (CEST)Lorient Lan Bihoue, France (7205): Ensoleillement: 15.10.2017 19:00:00 - 21.10.2017 19:00:00 (CEST)Lorient Lan Bihoue, France (7205): Quantités de précipitations: 15.10.2017 19:00:00 - 21.10.2017 19:00:00 (CEST)
Date & Time tt [°C] td [°C] tt 5cm [°C] tt -20cm [°C] ff [km/h] ff [knt] fx [km/h] fx [knt] dd ppp [hPa] vv [km] sd [min] rr [mm]
21.10.2017 19:00:00 12,1 7,8 10,8 14,9 27 14 57 31 W 1017,1 16 13 0,0
21.10.2017 18:00:00 12,1 8,6 9,6 14,9 24 13 72 39 W 1017,0 10 29 1,8
21.10.2017 17:00:00 14,5 7,8 14,0 14,9 39 21 68 37 W 1016,3 17 31 0,0
21.10.2017 16:00:00 14,6 9,2 14,1 14,9 44 24 67 36 W 1015,5 10 47 0,0
21.10.2017 15:00:00 14,7 9,3 - - 44 24 74 40 W 1015,3 10 - 0,0
21.10.2017 14:00:00 12,9 10,4 11,4 15,0 37 20 63 34 W 1015,1 3,4 17 1,8
21.10.2017 13:00:00 14,1 9,3 11,7 15,0 35 19 72 39 W 1014,7 10 42 0,0
21.10.2017 12:00:00 14,9 9,9 12,3 15,1 41 22 61 33 W 1014,0 10 24 0,2
21.10.2017 11:00:00 14,9 8,6 - - 46 25 72 39 W 1013,6 10 - -
21.10.2017 10:00:00 14,3 9,3 13,4 15,2 42 23 72 39 W 1013,1 10 11 0,0
21.10.2017 09:00:00 14,3 8,7 11,7 15,3 41 22 76 41 WSW 1012,2 10 0 0,0
21.10.2017 08:00:00 14,4 8,8 13,1 15,4 42 23 70 38 W 1011,7 10 0 0,0
21.10.2017 07:00:00 14,0 9,4 10,7 15,4 41 22 65 35 WSW 1011,4 14 0 0,2
21.10.2017 06:00:00 14,7 10,3 13,8 15,4 44 24 62 34 WSW 1010,9 12 0 0,0
21.10.2017 05:00:00 14,6 10,6 13,8 15,5 39 21 69 38 WSW 1010,5 10 0 0,0
21.10.2017 04:00:00 15,0 12,1 14,1 15,5 37 20 60 33 WSW 1010,0 13 0 0,0
21.10.2017 03:00:00 15,4 13,2 14,0 15,5 42 23 63 34 SW 1009,5 10 0 0,2
21.10.2017 02:00:00 14,2 12,9 13,1 15,5 28 15 42 23 SSW 1009,2 10 0 0,4
21.10.2017 01:00:00 13,5 12,6 13,1 15,5 26 14 48 26 SW 1009,1 6 0 1,4
21.10.2017 00:00:00 14,0 13,4 13,2 15,5 29 16 63 34 WSW 1009,3 6 0 1,8
20.10.2017 23:00:00 16,7 15,6 15,9 15,5 39 21 68 37 SSW 1008,0 7 0 0,8
20.10.2017 22:00:00 16,8 15,1 15,5 15,4 34 18 50 27 S 1008,8 15 0 0,0
20.10.2017 21:00:00 16,2 14,9 15,5 15,4 31 17 51 28 S 1009,8 14 0 0,0
20.10.2017 20:00:00 15,9 14,8 15,1 15,4 29 15 45 24 S 1010,3 14 0 0,2
20.10.2017 19:00:00 16,4 13,9 16,1 15,3 28 15 42 23 S 1010,9 19 0 0,0
20.10.2017 18:00:00 16,3 13,2 16,3 15,2 27 15 44 24 S 1011,4 20 1 0,0
20.10.2017 17:00:00 16,3 12,5 16,9 15,1 27 15 45 25 S 1012,2 20 17 0,0
20.10.2017 16:00:00 16,8 12,1 17,5 15,1 28 15 42 23 S 1012,9 10 27 0,0
20.10.2017 15:00:00 17,1 10,9 17,6 15,0 29 16 42 23 SSW 1013,6 10 41 0,0
20.10.2017 14:00:00 16,3 10,4 18,0 15,0 24 13 37 20 SSW 1014,1 10 52 0,0
20.10.2017 13:00:00 16,6 10,2 15,9 15,0 20 11 33 18 SW 1014,2 20 36 0,0
20.10.2017 12:00:00 15,2 8,9 14,8 15,0 22 12 34 18 SW 1014,1 10 38 0,0
20.10.2017 11:00:00 14,8 9,8 13,4 15,1 18 10 29 16 WSW 1014,0 20 16 0,0
20.10.2017 10:00:00 13,7 7,9 11,3 15,2 21 11 30 16 WSW 1013,8 41 18 0,0
20.10.2017 09:00:00 12,0 8,1 10,4 15,3 16 9 29 16 WSW 1013,0 20 0 0,0
20.10.2017 08:00:00 12,8 8,3 10,7 15,3 19 10 30 16 W 1012,3 20 0 0,0
20.10.2017 07:00:00 11,9 8,2 10,5 15,4 12 6 34 18 WNW 1012,1 34 0 0,0
20.10.2017 06:00:00 12,9 9,3 10,8 15,5 16 9 34 18 W 1011,3 20 0 0,0
20.10.2017 05:00:00 12,2 9,0 10,7 15,6 16 9 29 16 W 1010,7 10 0 0,0
20.10.2017 04:00:00 12,6 8,7 10,9 15,7 20 11 39 21 W 1010,5 19 0 0,0
20.10.2017 03:00:00 12,7 8,4 11,1 15,8 22 12 36 19 W 1009,8 10 0 0,0
20.10.2017 02:00:00 12,7 8,8 11,2 15,9 21 12 37 20 W 1009,2 18 0 0,0
20.10.2017 01:00:00 12,5 9,1 11,2 16,0 19 11 36 20 W 1008,4 19 0 0,0
20.10.2017 00:00:00 12,4 10,1 11,4 16,0 16 8 31 17 W 1007,8 17 0 0,0
19.10.2017 23:00:00 12,8 10,2 11,8 16,1 21 11 34 18 W 1006,8 20 0 0,0
19.10.2017 22:00:00 12,9 10,8 12,1 16,2 17 9 34 18 W 1005,7 19 0 0,0
19.10.2017 21:00:00 13,7 11,7 12,9 16,2 23 12 37 20 W 1004,7 19 0 0,0
19.10.2017 20:00:00 14,8 13,2 14,3 16,2 21 11 63 34 W 1003,2 15 0 0,8
19.10.2017 19:00:00 15,4 14,9 - - 39 21 65 35 SSW 1001,9 3,5 - 4,0
19.10.2017 18:00:00 14,9 14,3 14,6 16,2 38 21 72 39 S 1002,1 3,1 0 4,2
19.10.2017 17:00:00 15,5 14,0 14,7 16,2 35 19 55 30 S 1002,9 6 0 1,2
19.10.2017 16:00:00 16,5 13,8 16,8 16,2 31 17 55 30 S 1004,1 10 0 0,0
19.10.2017 15:00:00 16,7 14,0 17,4 16,1 31 17 48 26 S 1004,7 10 0 0,0
19.10.2017 14:00:00 16,8 13,9 17,9 16,1 28 15 44 24 SSW 1005,4 10 11 0,0
19.10.2017 13:00:00 16,8 13,9 16,9 16,1 28 15 42 23 SSW 1006,3 10 11 0,0
19.10.2017 12:00:00 16,0 14,0 16,6 16,0 19 10 33 18 SSW 1006,6 38 2 0,0
19.10.2017 11:00:00 16,3 14,1 15,1 16,1 16 9 26 14 SSW 1006,9 10 10 0,0
19.10.2017 10:00:00 14,7 13,4 14,0 16,1 11 6 16 9 SW 1006,7 10 0 0,2
19.10.2017 09:00:00 14,0 13,5 13,8 16,1 8 4 11 6 SE 1006,0 9 0 0,0
19.10.2017 08:00:00 14,0 13,5 13,3 16,2 5 3 9 5 - 1005,8 5 0 0,0
19.10.2017 07:00:00 14,6 14,3 14,0 16,2 3 1 6 4 SSE 1005,9 1,3 0 0,0
19.10.2017 06:00:00 14,8 14,5 13,8 16,2 4 2 10 5 SW 1006,6 3,0 0 0,0
19.10.2017 05:00:00 14,5 14,0 13,5 16,2 0 0 8 4 N 1006,7 5 0 0,0
19.10.2017 04:00:00 14,4 13,8 13,9 16,2 0 0 13 7 N 1007,0 2,3 0 0,0
19.10.2017 03:00:00 14,6 14,0 14,2 16,3 3 2 8 4 N 1007,9 3,9 0 0,2
19.10.2017 02:00:00 14,6 13,8 14,0 16,3 5 3 8 4 NNE 1008,2 7 0 0,0
19.10.2017 01:00:00 14,4 13,3 - - 5 3 9 5 ENE 1008,4 10 - 0,0
19.10.2017 00:00:00 14,5 12,7 13,5 16,3 5 3 8 4 NE 1008,7 14 0 0,0
18.10.2017 23:00:00 14,5 11,8 13,1 16,4 6 3 8 5 ENE 1009,2 29 0 0,0
18.10.2017 22:00:00 14,9 11,1 12,8 16,4 3 2 9 5 NE 1009,2 35 0 0,0
18.10.2017 21:00:00 15,5 11,7 14,4 16,3 6 3 10 5 NE 1009,3 41 0 0,0
18.10.2017 20:00:00 15,7 12,6 14,2 16,3 6 4 8 5 ENE 1009,3 48 0 0,0
18.10.2017 19:00:00 17,1 12,4 16,6 16,2 5 3 8 4 ENE 1009,4 56 0 0,0
18.10.2017 18:00:00 18,0 12,2 18,4 16,1 8 4 12 7 NE 1009,3 10 4 0,0
18.10.2017 17:00:00 18,3 11,1 19,2 16,0 8 4 16 8 NNE 1009,3 10 14 0,0
18.10.2017 16:00:00 18,3 11,8 19,5 15,9 5 3 11 6 NNE 1009,6 10 11 0,0
18.10.2017 15:00:00 18,6 10,9 21,2 15,8 5 3 10 5 - 1010,1 10 14 0,0
18.10.2017 14:00:00 18,4 11,7 19,5 15,8 4 2 13 7 - 1010,5 10 23 0,0
18.10.2017 13:00:00 17,1 12,6 18,3 15,7 8 4 11 6 E 1010,8 10 1 0,0
18.10.2017 12:00:00 16,2 13,1 16,0 15,8 5 3 10 5 E 1011,0 10 10 0,0
18.10.2017 11:00:00 14,6 13,3 14,3 15,8 6 3 8 4 ENE 1011,1 20 33 0,0
18.10.2017 10:00:00 13,3 13,1 8,3 15,9 2 1 7 4 NNE 1011,2 10 29 0,2
18.10.2017 09:00:00 10,8 10,5 7,5 16,0 6 3 9 5 ESE 1011,1 0,2 0 0,0
18.10.2017 08:00:00 11,8 11,2 7,6 16,0 5 3 8 4 NE 1010,8 0,2 0 0,0
18.10.2017 07:00:00 13,5 12,7 11,8 16,0 0 0 6 4 N 1011,1 11 0 0,0
18.10.2017 06:00:00 14,2 13,6 13,8 16,0 5 3 11 6 NNW 1011,0 10 0 0,2
18.10.2017 05:00:00 14,5 13,5 14,2 16,0 6 3 14 8 W 1011,6 6 0 0,0
18.10.2017 04:00:00 14,7 13,6 14,0 16,0 10 6 15 8 W 1011,8 19 0 0,0
18.10.2017 03:00:00 15,3 14,2 14,2 16,0 3 2 25 14 NW 1011,5 13 0 0,0
18.10.2017 02:00:00 15,3 14,5 15,0 16,0 3 2 6 4 ESE 1012,0 9 0 0,0
18.10.2017 01:00:00 15,3 14,5 15,0 16,0 3 1 7 4 NE 1012,1 11 0 0,0
18.10.2017 00:00:00 15,3 14,0 14,9 16,0 3 2 6 3 NE 1012,7 13 0 0,0
17.10.2017 23:00:00 15,3 14,0 15,0 16,0 2 1 8 5 NE 1013,0 10 0 0,0
17.10.2017 22:00:00 15,3 13,7 - - 5 3 15 8 E 1012,9 10 - 0,0
17.10.2017 21:00:00 15,4 13,6 14,8 16,0 5 3 11 6 ENE 1013,3 10 0 0,0
17.10.2017 20:00:00 15,6 13,4 15,1 16,0 9 5 17 9 ENE 1013,3 10 0 0,0
17.10.2017 19:00:00 16,1 14,1 15,4 15,9 9 5 21 12 ENE 1013,4 10 0 0,0
17.10.2017 18:00:00 15,9 14,6 15,4 15,9 15 8 19 10 ENE 1013,3 10 0 0,0
17.10.2017 17:00:00 17,0 14,3 16,8 15,9 11 6 14 8 E 1014,6 10 0 0,0
17.10.2017 16:00:00 16,9 13,6 17,0 15,8 11 6 20 11 E 1015,1 10 0 0,0
17.10.2017 15:00:00 17,2 13,7 18,0 15,7 16 9 33 18 E 1015,6 10 1 0,0
17.10.2017 14:00:00 16,6 12,7 16,0 15,7 22 12 33 18 E 1016,3 19 2 0,0
17.10.2017 13:00:00 14,6 11,7 13,0 15,7 21 11 29 16 ENE 1017,4 10 0 0,0
17.10.2017 12:00:00 13,1 11,2 12,5 15,7 13 7 23 13 NE 1018,9 10 0 0,2
17.10.2017 11:00:00 12,4 11,0 11,7 15,7 11 6 26 14 NE 1019,5 10 0 0,4
17.10.2017 10:00:00 12,3 11,0 11,7 15,8 13 7 18 10 NE 1019,9 10 0 0,2
17.10.2017 09:00:00 12,0 11,1 11,4 15,9 8 4 19 10 ENE 1020,2 13 0 0,2
17.10.2017 08:00:00 11,8 10,7 11,1 15,9 11 6 16 9 ENE 1020,2 10 0 0,0
17.10.2017 07:00:00 11,6 10,7 10,8 16,0 8 4 11 6 ENE 1020,7 10 0 0,0
17.10.2017 06:00:00 11,8 11,2 11,2 16,0 9 5 13 7 ENE 1020,5 12 0 0,0
17.10.2017 05:00:00 11,5 11,0 9,3 16,1 7 4 9 5 ENE 1021,5 10 0 0,0
17.10.2017 04:00:00 11,5 10,9 9,2 16,1 5 3 8 4 ENE 1022,3 9 0 0,0
17.10.2017 03:00:00 11,7 11,1 10,6 16,2 6 3 9 5 ENE 1022,4 9 0 0,0
17.10.2017 02:00:00 11,6 10,8 - - 5 3 8 4 ENE 1023,1 10 - -
17.10.2017 01:00:00 11,8 11,2 9,2 16,4 0 0 6 3 N 1023,2 10 0 0,0
17.10.2017 00:00:00 11,2 10,3 8,2 16,5 2 1 3 2 ENE 1023,3 11 0 0,0
16.10.2017 23:00:00 11,9 10,6 9,5 16,5 0 0 12 6 N 1023,3 11 0 0,0
16.10.2017 22:00:00 13,1 10,8 12,0 16,6 9 5 16 8 WSW 1023,1 11 0 0,0
16.10.2017 21:00:00 14,5 12,0 13,5 16,6 12 6 18 10 SW 1022,7 12 0 0,0
16.10.2017 20:00:00 14,7 12,2 14,0 16,6 12 6 20 11 SW 1022,4 11 0 0,0
16.10.2017 19:00:00 15,6 12,2 15,4 16,6 15 8 28 15 SW 1021,9 13 37 0,0
16.10.2017 18:00:00 17,0 11,3 18,0 16,7 22 12 34 19 W 1021,2 10 53 0,0
16.10.2017 17:00:00 17,3 12,2 17,0 16,7 24 13 35 19 WSW 1020,7 10 17 0,0
16.10.2017 16:00:00 16,9 12,8 16,5 16,7 22 12 32 17 WSW 1020,5 13 1 0,0
16.10.2017 15:00:00 16,5 12,3 16,3 16,7 21 11 34 18 WSW 1020,3 10 0 0,0
16.10.2017 14:00:00 16,6 13,5 16,2 16,8 18 10 35 19 SW 1020,0 10 0 0,0
16.10.2017 13:00:00 16,7 13,4 16,5 16,8 18 10 29 16 WSW 1019,2 10 0 0,0
16.10.2017 12:00:00 17,2 14,3 16,8 16,8 17 9 26 14 WSW 1018,4 9 0 0,0
16.10.2017 11:00:00 18,0 15,4 17,6 16,7 16 9 29 16 SW 1017,7 9 0 0,0
16.10.2017 10:00:00 18,5 16,1 17,4 16,8 13 7 27 15 S 1016,9 10 0 0,0
16.10.2017 09:00:00 18,0 16,2 17,1 16,8 18 10 29 15 SSE 1016,0 10 0 0,0
16.10.2017 08:00:00 17,8 16,0 17,1 16,8 15 8 46 25 SSE 1015,8 11 0 0,0
16.10.2017 07:00:00 18,2 16,2 17,7 16,8 28 15 48 26 SE 1013,9 12 0 0,0
16.10.2017 06:00:00 18,4 16,0 17,4 16,8 32 17 49 26 SE 1013,7 14 0 0,0
16.10.2017 05:00:00 18,1 16,1 17,4 16,8 28 15 43 23 SE 1014,5 10 0 0,0
16.10.2017 04:00:00 18,6 16,4 17,8 16,8 24 13 38 21 SE 1015,4 10 0 0,0
16.10.2017 03:00:00 18,8 16,2 17,8 16,9 24 13 43 23 SE 1016,1 18 0 0,0
16.10.2017 02:00:00 18,5 16,3 17,4 16,9 18 10 33 18 SE 1016,8 10 0 0,0
16.10.2017 01:00:00 18,1 15,7 17,2 16,9 20 11 33 18 ESE 1017,2 16 0 0,0
16.10.2017 00:00:00 17,9 15,9 16,7 16,9 22 12 32 17 ESE 1017,5 10 0 0,0
15.10.2017 23:00:00 17,5 15,8 - - 15 8 31 17 ESE 1017,6 10 - -
15.10.2017 22:00:00 17,6 16,3 16,9 16,9 19 10 36 20 SE 1017,9 10 0 0,0
15.10.2017 21:00:00 17,5 16,5 16,9 16,9 16 9 35 19 ESE 1018,5 9 0 0,0
15.10.2017 20:00:00 17,6 16,5 - - 18 10 26 14 SE 1018,4 9 - -
15.10.2017 19:00:00 17,9 16,6 17,5 16,8 13 7 29 16 SE 1018,6 10 0 0,0

tt = Température de l'air
td = dewpoint
tt 5cm = Température de l'air 5cm
tt -20cm = Température de l'air -20cm
ff = Vitesse du vent
fx = gusts
dd = Direction du vent
ppp = reduced air pressure
vv = visibility
sd = Ensoleillement
rr = Quantités de précipitations

stations d'obs. à proximité